User: anonymous   Login
Location: Cicognara
(44.9500°N, 10.4667°E)
Time: 20:17:42
(UTC+00:00)
Language:

Cosmos 1943 Rocket - Orbit

View from above orbital plane
View from above orbital plane
View from above satellite
View from above satellite

Ground track
Ground track

The orbit data is extracted from the following two-line orbital elements,

1 19120U 88039B   21271.40171551 -.00000111  00000-0 -29769-4 0  9990
2 19120  71.0113 259.7147 0023833 306.1363  53.7556 14.19224657728047
Epoch (UTC): 28 September 2021 09:38:28
Eccentricity: 0.0023833
inclination: 71.0113°
perigee height: 811 km
apogee height: 845 km
right ascension of ascending node: 259.7147°
argument of perigee: 306.1363°
revolutions per day: 14.19224657
mean anomaly at epoch: 53.7556°
orbit number at epoch: 72804

The dashed part of the orbit path shows where the satellite is in the earth's shadow,  

DLR